| time (UTC) | temp F | wind direction | speed MPH | gust MPH | rain 1hr in | rain 24hr in | rain mn in | humidity % | barometer mb |
| 20260505124423 | 61 | 205 | 2.0 | 2.0 | 0.00 | 0.00 | 0.00 | 90 | 1019.6 |
| 20260505123424 | 58 | 180 | 2.0 | 3.0 | 0.00 | 0.00 | 0.00 | 94 | 1019.5 |
| 20260505122424 | 56 | 180 | 2.0 | 2.0 | 0.00 | 0.00 | 0.00 | 96 | 1019.6 |
| 20260505121523 | 55 | 180 | 0.0 | 0.0 | 0.00 | 0.00 | 0.00 | 96 | 1019.5 |
| 20260505120524 | 53 | 180 | 0.0 | 0.0 | 0.00 | 0.00 | 0.00 | 97 | 1019.5 |
| 20260505115525 | 52 | 180 | 0.0 | 0.0 | 0.00 | 0.00 | 0.00 | 97 | 1019.3 |
| 20260505114525 | 51 | 180 | 0.0 | 0.0 | 0.00 | 0.00 | 0.00 | 96 | 1019.1 |
| 20260505113525 | 50 | 180 | 0.0 | 0.0 | 0.00 | 0.00 | 0.00 | 96 | 1019.1 |
| 20260505112525 | 49 | 180 | 0.0 | 0.0 | 0.00 | 0.00 | 0.00 | 96 | 1018.9 |
| 20260505111524 | 49 | 180 | 0.0 | 0.0 | 0.00 | 0.00 | 0.00 | 95 | 1018.8 |
| 20260505110525 | 49 | 180 | 0.0 | 0.0 | 0.00 | 0.00 | 0.00 | 95 | 1018.8 |
| 20260505101624 | 49 | 180 | 0.0 | 0.0 | 0.00 | 0.00 | 0.00 | 95 | 1018.3 |
| 20260505100624 | 50 | 180 | 0.0 | 0.0 | 0.00 | 0.00 | 0.00 | 94 | 1018.1 |
| 20260505094625 | 50 | 180 | 0.0 | 0.0 | 0.00 | 0.00 | 0.00 | 94 | 1018.2 |
| 20260505093724 | 50 | 180 | 0.0 | 0.0 | 0.00 | 0.00 | 0.00 | 95 | 1018.3 |
| 20260505092822 | 50 | 180 | 0.0 | 0.0 | 0.00 | 0.00 | 0.00 | 95 | 1018.0 |
| 20260505090823 | 51 | 180 | 0.0 | 0.0 | 0.00 | 0.00 | 0.00 | 94 | 1017.9 |
| 20260505090725 | 51 | 180 | 0.0 | 0.0 | 0.00 | 0.00 | 0.00 | 95 | 1017.9 |
| 20260505085725 | 51 | 180 | 0.0 | 0.0 | 0.00 | 0.00 | 0.00 | 94 | 1017.9 |
| 20260505084723 | 51 | 180 | 0.0 | 0.0 | 0.00 | 0.00 | 0.00 | 94 | 1017.8 |
| 20260505083723 | 51 | 180 | 0.0 | 0.0 | 0.00 | 0.00 | 0.00 | 93 | 1017.7 |
| 20260505082822 | 51 | 180 | 0.0 | 0.0 | 0.00 | 0.00 | 0.00 | 95 | 1017.6 |
| 20260505081825 | 51 | 180 | 0.0 | 0.0 | 0.00 | 0.00 | 0.00 | 93 | 1017.4 |
| 20260505080825 | 51 | 180 | 0.0 | 0.0 | 0.00 | 0.00 | 0.00 | 93 | 1017.6 |
| 20260505075823 | 51 | 180 | 0.0 | 0.0 | 0.00 | 0.00 | 0.00 | 93 | 1017.6 |
| 20260505074823 | 52 | 180 | 0.0 | 0.0 | 0.00 | 0.00 | 0.00 | 93 | 1017.5 |
| 20260505072822 | 52 | 180 | 0.0 | 0.0 | 0.00 | 0.00 | 0.00 | 92 | 1017.4 |
| 20260505071824 | 52 | 180 | 0.0 | 0.0 | 0.00 | 0.00 | 0.00 | 92 | 1017.5 |
| 20260505070839 | 52 | 180 | 0.0 | 0.0 | 0.00 | 0.00 | 0.00 | 92 | 1017.6 |
| 20260505065924 | 52 | 180 | 0.0 | 0.0 | 0.00 | 0.00 | 0.00 | 91 | 1017.5 |
| 20260505065023 | 52 | 180 | 0.0 | 0.0 | 0.00 | 0.00 | 0.00 | 90 | 1017.6 |
| 20260505064025 | 53 | 180 | 0.0 | 0.0 | 0.00 | 0.00 | 0.00 | 89 | 1017.7 |
| 20260505063025 | 53 | 180 | 0.0 | 0.0 | 0.00 | 0.00 | 0.00 | 88 | 1017.8 |
| 20260505062025 | 54 | 180 | 0.0 | 0.0 | 0.00 | 0.00 | 0.00 | 88 | 1017.9 |
| 20260505054040 | 54 | 180 | 0.0 | 0.0 | 0.00 | 0.00 | 0.00 | 83 | 1018.3 |
| 20260505053124 | 55 | 180 | 0.0 | 0.0 | 0.00 | 0.00 | 0.00 | 84 | 1018.5 |
| 20260505052125 | 56 | 180 | 0.0 | 0.0 | 0.00 | 0.00 | 0.00 | 82 | 1018.6 |
| 20260505051144 | 56 | 180 | 0.0 | 1.0 | 0.00 | 0.00 | 0.00 | 83 | 1018.6 |
| 20260505050145 | 56 | 180 | 0.0 | 1.0 | 0.00 | 0.00 | 0.00 | 83 | 1018.7 |
| 20260505041142 | 57 | 180 | 0.0 | 0.0 | 0.00 | 0.00 | 0.00 | 79 | 1018.8 |
| 20260505040144 | 57 | 360 | 0.0 | 0.0 | 0.00 | 0.00 | 0.00 | 77 | 1018.9 |
| 20260505035241 | 58 | 180 | 0.0 | 0.0 | 0.00 | 0.00 | 0.00 | 75 | 1018.9 |
| 20260505034242 | 59 | 180 | 0.0 | 0.0 | 0.00 | 0.00 | 0.00 | 75 | 1018.9 |
| 20260505033339 | 59 | 180 | 0.0 | 1.0 | 0.00 | 0.00 | 0.00 | 74 | 1019.0 |
| 20260505032341 | 59 | 180 | 0.0 | 0.0 | 0.00 | 0.00 | 0.00 | 72 | 1018.9 |
| 20260505031342 | 60 | 180 | 1.0 | 2.0 | 0.00 | 0.00 | 0.00 | 71 | 1019.0 |
| 20260505030357 | 61 | 180 | 1.0 | 2.0 | 0.00 | 0.00 | 0.00 | 70 | 1018.9 |
| 20260505025340 | 61 | 180 | 2.0 | 3.0 | 0.00 | 0.00 | 0.00 | 69 | 1019.0 |
| 20260505025241 | 61 | 180 | 2.0 | 2.0 | 0.00 | 0.00 | 0.00 | 68 | 1018.9 |
| 20260505024241 | 62 | 180 | 1.0 | 2.0 | 0.00 | 0.00 | 0.00 | 67 | 1019.0 |
| 20260505023339 | 62 | 180 | 2.0 | 3.0 | 0.00 | 0.00 | 0.00 | 65 | 1018.9 |
| 20260505022342 | 62 | 180 | 3.0 | 4.0 | 0.00 | 0.00 | 0.00 | 66 | 1018.9 |
| 20260505022242 | 62 | 180 | 3.0 | 3.0 | 0.00 | 0.00 | 0.00 | 65 | 1018.9 |
| 20260505021242 | 63 | 180 | 2.0 | 3.0 | 0.00 | 0.00 | 0.00 | 65 | 1018.8 |
| 20260505015239 | 64 | 180 | 4.0 | 6.0 | 0.00 | 0.00 | 0.00 | 62 | 1018.7 |
| 20260505014241 | 64 | 180 | 4.0 | 5.0 | 0.00 | 0.00 | 0.00 | 62 | 1018.6 |
| 20260505013242 | 65 | 180 | 3.0 | 6.0 | 0.00 | 0.00 | 0.00 | 61 | 1018.5 |
| 20260505012241 | 65 | 180 | 4.0 | 5.0 | 0.00 | 0.00 | 0.00 | 61 | 1018.6 |
| 20260505011340 | 66 | 180 | 4.0 | 5.0 | 0.00 | 0.00 | 0.00 | 61 | 1018.3 |
| 20260505010340 | 66 | 180 | 7.0 | 8.0 | 0.00 | 0.00 | 0.00 | 61 | 1018.3 |
| 20260505005439 | 66 | 180 | 6.0 | 8.0 | 0.00 | 0.00 | 0.00 | 62 | 1018.1 |
| 20260505004442 | 66 | 202 | 5.0 | 8.0 | 0.00 | 0.00 | 0.00 | 61 | 1018.0 |
| 20260505004340 | 67 | 208 | 5.0 | 6.0 | 0.00 | 0.00 | 0.00 | 61 | 1018.1 |
| 20260505004242 | 67 | 202 | 5.0 | 7.0 | 0.00 | 0.00 | 0.00 | 60 | 1018.1 |
| 20260505003340 | 67 | 180 | 6.0 | 7.0 | 0.00 | 0.00 | 0.00 | 60 | 1017.9 |
| 20260505002340 | 68 | 180 | 7.0 | 8.0 | 0.00 | 0.00 | 0.00 | 58 | 1017.9 |
| 20260505001341 | 68 | 202 | 4.0 | 5.0 | 0.00 | 0.00 | 0.00 | 56 | 1017.9 |
| 20260505000440 | 69 | 202 | 6.0 | 9.0 | 0.00 | 0.00 | 0.00 | 54 | 1017.8 |
| 20260504235442 | 69 | 180 | 7.0 | 8.0 | 0.00 | 0.00 | 0.00 | 52 | 1017.9 |
| 20260504234443 | 69 | 180 | 7.0 | 11.0 | 0.00 | 0.00 | 0.00 | 51 | 1017.7 |
| 20260504233440 | 70 | 180 | 9.0 | 12.0 | 0.00 | 0.00 | 0.00 | 50 | 1017.6 |
| 20260504232441 | 70 | 180 | 9.0 | 9.0 | 0.00 | 0.00 | 0.00 | 50 | 1017.5 |
| 20260504230443 | 72 | 224 | 6.0 | 9.0 | 0.00 | 0.00 | 0.00 | 46 | 1017.5 |
| 20260504225540 | 72 | 182 | 12.0 | 16.0 | 0.00 | 0.00 | 0.00 | 47 | 1017.4 |
| 20260504224541 | 73 | 204 | 9.0 | 11.0 | 0.00 | 0.00 | 0.00 | 46 | 1017.4 |
| 20260504223539 | 73 | 198 | 10.0 | 14.0 | 0.00 | 0.00 | 0.00 | 45 | 1017.4 |
| 20260504223439 | 73 | 200 | 10.0 | 13.0 | 0.00 | 0.00 | 0.00 | 45 | 1017.4 |
| 20260504222441 | 74 | 182 | 9.0 | 11.0 | 0.00 | 0.00 | 0.00 | 43 | 1017.2 |
| 20260504221441 | 75 | 200 | 11.0 | 14.0 | 0.00 | 0.00 | 0.00 | 42 | 1017.2 |
| 20260504220441 | 76 | 199 | 8.0 | 11.0 | 0.00 | 0.00 | 0.00 | 42 | 1017.0 |
| 20260504214557 | 77 | 180 | 11.0 | 13.0 | 0.00 | 0.00 | 0.00 | 38 | 1016.8 |
| 20260504213640 | 78 | 180 | 12.0 | 15.0 | 0.00 | 0.00 | 0.00 | 34 | 1016.8 |
| 20260504212739 | 78 | 180 | 8.0 | 11.0 | 0.00 | 0.00 | 0.00 | 35 | 1016.8 |
| 20260504211739 | 78 | 165 | 7.0 | 9.0 | 0.00 | 0.00 | 0.00 | 34 | 1016.6 |
| 20260504205741 | 79 | 183 | 5.0 | 6.0 | 0.00 | 0.00 | 0.00 | 34 | 1016.8 |
| 20260504205642 | 79 | 180 | 5.0 | 7.0 | 0.00 | 0.00 | 0.00 | 34 | 1016.8 |
| 20260504204641 | 78 | 199 | 4.0 | 6.0 | 0.00 | 0.00 | 0.00 | 33 | 1016.8 |
| 20260504203738 | 78 | 233 | 3.0 | 7.0 | 0.00 | 0.00 | 0.00 | 32 | 1016.9 |
| 20260504202757 | 78 | 202 | 5.0 | 7.0 | 0.00 | 0.00 | 0.00 | 32 | 1017.2 |
| 20260504201741 | 78 | 225 | 7.0 | 8.0 | 0.00 | 0.00 | 0.00 | 33 | 1017.1 |
| 20260504201641 | 78 | 218 | 5.0 | 7.0 | 0.00 | 0.00 | 0.00 | 33 | 1017.2 |
| 20260504200641 | 78 | 180 | 5.0 | 7.0 | 0.00 | 0.00 | 0.00 | 33 | 1017.4 |
| 20260504195655 | 78 | 206 | 4.0 | 6.0 | 0.00 | 0.00 | 0.00 | 33 | 1017.4 |
| 20260504194639 | 78 | 191 | 2.0 | 4.0 | 0.00 | 0.00 | 0.00 | 33 | 1017.5 |
| 20260504193640 | 78 | 197 | 8.0 | 11.0 | 0.00 | 0.00 | 0.00 | 33 | 1017.7 |
| 20260504192641 | 78 | 204 | 8.0 | 10.0 | 0.00 | 0.00 | 0.00 | 31 | 1017.8 |
| 20260504191640 | 78 | 195 | 5.0 | 7.0 | 0.00 | 0.00 | 0.00 | 34 | 1017.9 |
| 20260504190640 | 77 | 202 | 0.0 | 0.0 | 0.00 | 0.00 | 0.00 | 33 | 1018.0 |
| 20260504190540 | 77 | 190 | 1.0 | 3.0 | 0.00 | 0.00 | 0.00 | 34 | 1018.2 |
| 20260504185541 | 77 | 183 | 7.0 | 8.0 | 0.00 | 0.00 | 0.00 | 35 | 1018.2 |
| 20260504184640 | 77 | 201 | 4.0 | 5.0 | 0.00 | 0.00 | 0.00 | 33 | 1018.2 |
| 20260504183638 | 77 | 202 | 8.0 | 9.0 | 0.00 | 0.00 | 0.00 | 34 | 1018.5 |
| 20260504182640 | 76 | 170 | 2.0 | 3.0 | 0.00 | 0.00 | 0.00 | 35 | 1018.7 |
| 20260504181639 | 76 | 129 | 4.0 | 8.0 | 0.00 | 0.00 | 0.00 | 36 | 1018.8 |
| 20260504180639 | 75 | 225 | 0.0 | 3.0 | 0.00 | 0.00 | 0.00 | 34 | 1018.7 |
| 20260504175640 | 76 | 287 | 2.0 | 4.0 | 0.00 | 0.00 | 0.00 | 34 | 1018.8 |
| 20260504174641 | 75 | 45 | 0.0 | 1.0 | 0.00 | 0.00 | 0.00 | 35 | 1018.7 |
| 20260504173740 | 75 | 290 | 0.0 | 2.0 | 0.00 | 0.00 | 0.00 | 36 | 1018.9 |
| 20260504170841 | 74 | 202 | 3.0 | 4.0 | 0.00 | 0.00 | 0.00 | 37 | 1019.1 |
| 20260504151057 | 72 | 262 | 1.0 | 3.0 | 0.00 | 0.00 | 0.00 | 48 | 1019.9 |
| 20260504150142 | 71 | 252 | 1.0 | 3.0 | 0.00 | 0.00 | 0.00 | 50 | 1019.9 |
| 20260504141141 | 68 | 228 | 2.0 | 4.0 | 0.00 | 0.00 | 0.00 | 61 | 1020.3 |
| 20260504140141 | 67 | 43 | 1.0 | 3.0 | 0.00 | 0.00 | 0.00 | 62 | 1020.3 |